[ hide orbit diagram ]
For accurate long-term ephemerides, please instead use our Horizons system.This orbit viewer was implemented using two-body methods, and hence should not be used for determining accurate long-term trajectories (over several years or decades) or planetary encounter circumstances.
Orbital Elements at Epoch 2459000.5 (2020-May-31.0) TDB
Reference: JPL 14 (heliocentric ecliptic J2000)
Element | Value | Uncertainty (1-sigma) | Units |
e | .1193684607623315 | 1.1017e-07 | |
a | 2.426063605646881 | 2.6753e-08 | au |
q | 2.136468127329301 | 2.5633e-07 | au |
i | 2.546332966514969 | 9.5476e-06 | deg |
node | 18.48453338646128 | 0.00011007 | deg |
peri | 193.484806242367 | 0.00011229 | deg |
M | 227.2206291787722 | 2.731e-05 | deg |
tp | 2459509.572698821729 (2021-Oct-22.07269882) | 0.00011082 | TDB |
period | 1380.230757551708 3.78 | 2.283e-05 6.251e-08 | d yr |
n | .2608259510450109 | 4.3143e-09 | deg/d |
Q | 2.715659083964462 | 2.9946e-08 | au |
|
| | Orbit Determination Parameters
Additional Information
|
[ show covariance matrix ]
Physical Parameter Table
Parameter |
Symbol |
Value |
Units |
Sigma |
Reference |
Notes |
absolute magnitude |
H |
17.6 |
|
n/a |
MPO503402 |
|
|
351717 (2006 BC245) Discovered 2006-Jan-31 by Spacewatch at Kitt Peak |
Reference: 20130127/Numbers.arc | Last Updated: 2013-01-31 |
|
[ show close-approach data ]
|